Time,TemperatureF,DewpointF,PressureIn,WindDirection,WindDirectionDegrees,WindSpeedMPH,WindSpeedGustMPH,Humidity,HourlyPrecipIn,Conditions,Clouds,dailyrainin,SoftwareType,DateUTC
2013-03-05 00:00:00,29.0,20.1,30.12,ENE,70,4.0,4.0,69,0.00,,,0.00,Wunderground v.1.15,2013-03-05 05:00:00,
2013-03-05 00:10:00,29.0,20.1,30.12,ENE,65,3.0,3.0,69,0.00,,,0.00,Wunderground v.1.15,2013-03-05 05:10:00,
2013-03-05 00:15:00,29.0,20.4,30.12,ENE,77,3.0,3.0,70,0.00,,,0.00,Wunderground v.1.15,2013-03-05 05:15:00,
2013-03-05 00:20:00,28.9,20.0,30.12,ENE,65,2.0,3.0,69,0.00,,,0.00,Wunderground v.1.15,2013-03-05 05:20:00,
2013-03-05 00:25:00,28.9,20.0,30.12,East,96,3.0,3.0,69,0.00,,,0.00,Wunderground v.1.15,2013-03-05 05:25:00,
2013-03-05 00:30:00,28.8,19.9,30.12,ENE,70,4.0,4.0,69,0.00,,,0.00,Wunderground v.1.15,2013-03-05 05:30:00,
2013-03-05 00:35:00,28.8,19.9,30.12,ESE,113,3.0,4.0,69,0.00,,,0.00,Wunderground v.1.15,2013-03-05 05:35:00,
2013-03-05 00:40:00,28.8,20.2,30.12,ENE,70,3.0,3.0,70,0.00,,,0.00,Wunderground v.1.15,2013-03-05 05:40:00,
2013-03-05 00:45:00,28.7,20.1,30.11,ENE,75,2.0,3.0,70,0.00,,,0.00,Wunderground v.1.15,2013-03-05 05:45:00,
2013-03-05 00:55:00,28.6,20.1,30.11,ENE,58,3.0,3.0,70,0.00,,,0.00,Wunderground v.1.15,2013-03-05 05:55:00,
2013-03-05 01:00:00,28.6,20.1,30.11,ENE,68,3.0,4.0,70,0.00,,,0.00,Wunderground v.1.15,2013-03-05 06:00:00,
2013-03-05 01:10:00,28.5,20.3,30.11,ENE,78,3.0,3.0,71,0.00,,,0.00,Wunderground v.1.15,2013-03-05 06:10:00,
2013-03-05 01:15:00,28.5,20.3,30.11,East,83,3.0,3.0,71,0.00,,,0.00,Wunderground v.1.15,2013-03-05 06:15:00,
2013-03-05 01:25:00,28.6,20.7,30.10,ESE,110,3.0,3.0,72,0.00,,,0.00,Wunderground v.1.15,2013-03-05 06:25:00,
2013-03-05 01:30:00,28.6,20.4,30.10,East,91,3.0,3.0,71,0.00,,,0.00,Wunderground v.1.15,2013-03-05 06:30:00,
2013-03-05 01:35:00,28.7,20.1,30.10,East,83,3.0,3.0,70,0.00,,,0.00,Wunderground v.1.15,2013-03-05 06:35:00,
2013-03-05 01:40:00,28.7,20.8,30.09,ENE,68,4.0,5.0,72,0.00,,,0.00,Wunderground v.1.15,2013-03-05 06:40:00,
2013-03-05 01:45:00,28.7,20.5,30.09,ESE,117,4.0,5.0,71,0.00,,,0.00,Wunderground v.1.15,2013-03-05 06:45:00,
2013-03-05 01:50:00,28.8,20.6,30.09,ENE,73,5.0,5.0,71,0.00,,,0.00,Wunderground v.1.15,2013-03-05 06:50:00,
2013-03-05 02:00:00,28.7,20.1,30.09,ESE,108,5.0,5.0,70,0.00,,,0.00,Wunderground v.1.15,2013-03-05 07:00:00,
2013-03-05 02:10:00,28.7,20.1,30.09,ENE,77,5.0,7.0,70,0.00,,,0.00,Wunderground v.1.15,2013-03-05 07:10:00,
2013-03-05 02:15:00,28.7,20.5,30.09,ESE,107,4.0,7.0,71,0.00,,,0.00,Wunderground v.1.15,2013-03-05 07:15:00,
2013-03-05 02:20:00,28.7,20.1,30.09,ESE,113,4.0,6.0,70,0.00,,,0.00,Wunderground v.1.15,2013-03-05 07:20:00,
2013-03-05 02:30:00,28.7,20.1,30.08,East,87,5.0,5.0,70,0.00,,,0.00,Wunderground v.1.15,2013-03-05 07:30:00,
2013-03-05 02:35:00,28.7,20.5,30.08,ENE,76,4.0,5.0,71,0.00,,,0.00,Wunderground v.1.15,2013-03-05 07:35:00,
2013-03-05 02:40:00,28.6,20.1,30.08,East,90,5.0,5.0,70,0.00,,,0.00,Wunderground v.1.15,2013-03-05 07:40:00,
2013-03-05 02:45:00,28.7,20.5,30.08,ESE,110,5.0,5.0,71,0.00,,,0.00,Wunderground v.1.15,2013-03-05 07:45:00,
2013-03-05 02:50:00,28.6,20.4,30.08,ENE,71,4.0,4.0,71,0.00,,,0.00,Wunderground v.1.15,2013-03-05 07:50:00,
2013-03-05 02:55:00,28.6,20.1,30.07,East,94,4.0,4.0,70,0.00,,,0.00,Wunderground v.1.15,2013-03-05 07:55:00,
2013-03-05 03:00:00,28.5,20.0,30.07,East,100,4.0,4.0,70,0.00,,,0.00,Wunderground v.1.15,2013-03-05 08:00:00,
2013-03-05 03:10:00,28.5,20.0,30.06,ENE,68,5.0,5.0,70,0.00,,,0.00,Wunderground v.1.15,2013-03-05 08:10:00,
2013-03-05 03:15:00,28.5,20.3,30.06,ENE,75,5.0,5.0,71,0.00,,,0.00,Wunderground v.1.15,2013-03-05 08:15:00,
2013-03-05 03:20:00,28.3,20.1,30.06,ENE,60,5.0,5.0,71,0.00,,,0.00,Wunderground v.1.15,2013-03-05 08:20:00,
2013-03-05 03:25:00,28.3,20.1,30.06,ESE,116,5.0,5.0,71,0.00,,,0.00,Wunderground v.1.15,2013-03-05 08:25:00,
2013-03-05 03:30:00,28.2,20.0,30.05,ENE,72,5.0,8.0,71,0.00,,,0.00,Wunderground v.1.15,2013-03-05 08:30:00,
2013-03-05 03:35:00,28.1,20.2,30.05,SE,131,5.0,8.0,72,0.00,,,0.00,Wunderground v.1.15,2013-03-05 08:35:00,
2013-03-05 03:40:00,28.1,20.2,30.05,ENE,70,5.0,6.0,72,0.00,,,0.00,Wunderground v.1.15,2013-03-05 08:40:00,
2013-03-05 03:45:00,28.2,20.0,30.05,NE,44,5.0,6.0,71,0.00,,,0.00,Wunderground v.1.15,2013-03-05 08:45:00,
2013-03-05 03:50:00,28.2,20.0,30.05,East,83,5.0,5.0,71,0.00,,,0.00,Wunderground v.1.15,2013-03-05 08:50:00,
2013-03-05 03:55:00,28.1,19.9,30.05,ENE,76,5.0,7.0,71,0.00,,,0.00,Wunderground v.1.15,2013-03-05 08:55:00,
2013-03-05 04:00:00,28.1,20.2,30.04,ENE,65,5.0,5.0,72,0.00,,,0.00,Wunderground v.1.15,2013-03-05 09:00:00,
2013-03-05 04:10:00,28.1,20.2,30.04,ENE,65,6.0,6.0,72,0.00,,,0.00,Wunderground v.1.15,2013-03-05 09:10:00,
2013-03-05 04:15:00,28.1,20.2,30.04,East,84,6.0,6.0,72,0.00,,,0.00,Wunderground v.1.15,2013-03-05 09:15:00,
2013-03-05 04:20:00,28.1,20.2,30.03,ENE,68,5.0,9.0,72,0.00,,,0.00,Wunderground v.1.15,2013-03-05 09:20:00,
2013-03-05 04:25:00,28.1,20.2,30.03,East,81,5.0,9.0,72,0.00,,,0.00,Wunderground v.1.15,2013-03-05 09:25:00,
2013-03-05 04:30:00,28.2,20.3,30.03,ESE,113,5.0,5.0,72,0.00,,,0.00,Wunderground v.1.15,2013-03-05 09:30:00,
2013-03-05 04:40:00,28.3,20.4,30.03,East,84,5.0,10.0,72,0.00,,,0.00,Wunderground v.1.15,2013-03-05 09:40:00,
2013-03-05 04:45:00,28.3,20.4,30.03,East,79,6.0,10.0,72,0.00,,,0.00,Wunderground v.1.15,2013-03-05 09:45:00,
2013-03-05 04:50:00,28.3,20.4,30.02,ENE,68,6.0,7.0,72,0.00,,,0.00,Wunderground v.1.15,2013-03-05 09:50:00,
2013-03-05 04:55:00,28.4,20.5,30.03,ENE,60,6.0,7.0,72,0.00,,,0.00,Wunderground v.1.15,2013-03-05 09:55:00,
2013-03-05 05:00:00,28.4,20.8,30.03,East,91,5.0,5.0,73,0.00,,,0.00,Wunderground v.1.15,2013-03-05 10:00:00,
2013-03-05 05:10:00,28.5,20.9,30.03,ESE,113,4.0,4.0,73,0.00,,,0.00,Wunderground v.1.15,2013-03-05 10:10:00,
2013-03-05 05:15:00,28.5,20.9,30.03,East,86,4.0,4.0,73,0.00,,,0.00,Wunderground v.1.15,2013-03-05 10:15:00,
2013-03-05 05:20:00,28.5,20.9,30.03,East,91,5.0,5.0,73,0.00,,,0.00,Wunderground v.1.15,2013-03-05 10:20:00,
2013-03-05 05:25:00,28.6,20.7,30.03,ENE,75,5.0,5.0,72,0.00,,,0.00,Wunderground v.1.15,2013-03-05 10:25:00,
2013-03-05 05:30:00,28.5,20.9,30.02,ESE,105,5.0,5.0,73,0.00,,,0.00,Wunderground v.1.15,2013-03-05 10:30:00,
2013-03-05 05:35:00,28.5,20.6,30.02,ENE,60,5.0,6.0,72,0.00,,,0.00,Wunderground v.1.15,2013-03-05 10:35:00,
2013-03-05 05:40:00,28.5,20.9,30.02,ESE,113,6.0,6.0,73,0.00,,,0.00,Wunderground v.1.15,2013-03-05 10:40:00,
2013-03-05 05:45:00,28.5,20.9,30.02,ENE,61,5.0,6.0,73,0.00,,,0.00,Wunderground v.1.15,2013-03-05 10:45:00,
2013-03-05 05:50:00,28.4,20.8,30.02,ENE,72,6.0,10.0,73,0.00,,,0.00,Wunderground v.1.15,2013-03-05 10:50:00,
2013-03-05 05:55:00,28.3,20.7,30.02,ENE,75,6.0,10.0,73,0.00,,,0.00,Wunderground v.1.15,2013-03-05 10:55:00,
2013-03-05 06:00:00,28.3,20.7,30.02,ESE,117,7.0,7.0,73,0.00,,,0.00,Wunderground v.1.15,2013-03-05 11:00:00,
2013-03-05 06:10:00,28.2,21.0,30.01,East,92,7.0,10.0,74,0.00,,,0.00,Wunderground v.1.15,2013-03-05 11:10:00,
2013-03-05 06:15:00,28.2,21.0,30.01,ENE,62,6.0,10.0,74,0.00,,,0.00,Wunderground v.1.15,2013-03-05 11:15:00,
2013-03-05 06:20:00,28.1,20.6,30.01,ENE,65,7.0,9.0,73,0.00,,,0.00,Wunderground v.1.15,2013-03-05 11:20:00,
2013-03-05 06:25:00,28.0,20.5,30.01,East,87,8.0,12.0,73,0.00,,,0.00,Wunderground v.1.15,2013-03-05 11:25:00,
2013-03-05 06:30:00,27.9,20.7,30.01,ENE,76,8.0,8.0,74,0.00,,,0.00,Wunderground v.1.15,2013-03-05 11:30:00,
2013-03-05 06:35:00,27.8,20.3,30.01,ESE,109,8.0,8.0,73,0.00,,,0.00,Wunderground v.1.15,2013-03-05 11:35:00,
2013-03-05 06:40:00,27.7,20.5,30.01,ENE,73,7.0,8.0,74,0.00,,,0.00,Wunderground v.1.15,2013-03-05 11:40:00,
2013-03-05 06:50:00,27.6,20.1,30.00,ENE,75,8.0,8.0,73,0.00,,,0.00,Wunderground v.1.15,2013-03-05 11:50:00,
2013-03-05 06:55:00,27.5,20.3,30.00,ENE,69,8.0,9.0,74,0.00,,,0.00,Wunderground v.1.15,2013-03-05 11:55:00,
2013-03-05 07:00:00,27.4,20.2,30.00,ENE,68,8.0,9.0,74,0.00,,,0.00,Wunderground v.1.15,2013-03-05 12:00:00,
2013-03-05 07:10:00,27.4,20.2,30.00,ESE,110,8.0,10.0,74,0.00,,,0.00,Wunderground v.1.15,2013-03-05 12:10:00,
2013-03-05 07:20:00,27.5,20.6,30.01,ENE,65,8.0,8.0,75,0.00,,,0.00,Wunderground v.1.15,2013-03-05 12:20:00,
2013-03-05 07:25:00,27.5,20.3,30.00,East,88,7.0,8.0,74,0.00,,,0.00,Wunderground v.1.15,2013-03-05 12:25:00,
2013-03-05 07:30:00,27.6,20.4,30.00,East,84,8.0,8.0,74,0.00,,,0.00,Wunderground v.1.15,2013-03-05 12:30:00,
2013-03-05 07:35:00,27.6,20.7,30.00,ESE,106,8.0,8.0,75,0.00,,,0.00,Wunderground v.1.15,2013-03-05 12:35:00,
2013-03-05 07:40:00,27.6,20.4,30.00,ENE,76,7.0,7.0,74,0.00,,,0.00,Wunderground v.1.15,2013-03-05 12:40:00,
2013-03-05 07:45:00,27.6,20.4,30.00,East,89,7.0,11.0,74,0.00,,,0.00,Wunderground v.1.15,2013-03-05 12:45:00,
2013-03-05 07:55:00,27.6,20.7,30.00,SE,131,7.0,8.0,75,0.00,,,0.00,Wunderground v.1.15,2013-03-05 12:55:00,
2013-03-05 08:00:00,27.6,20.4,30.00,ESE,119,6.0,6.0,74,0.00,,,0.00,Wunderground v.1.15,2013-03-05 13:00:00,
2013-03-05 08:10:00,27.5,20.6,30.00,ENE,65,6.0,7.0,75,0.00,,,0.00,Wunderground v.1.15,2013-03-05 13:10:00,
2013-03-05 08:15:00,27.5,20.6,30.00,ENE,67,7.0,7.0,75,0.00,,,0.00,Wunderground v.1.15,2013-03-05 13:15:00,
2013-03-05 08:20:00,27.7,20.8,30.00,East,81,6.0,10.0,75,0.00,,,0.00,Wunderground v.1.15,2013-03-05 13:20:00,
2013-03-05 08:25:00,27.9,21.0,30.00,East,94,8.0,11.0,75,0.00,,,0.00,Wunderground v.1.15,2013-03-05 13:25:00,
2013-03-05 08:30:00,27.9,21.0,30.00,ENE,73,9.0,12.0,75,0.00,,,0.00,Wunderground v.1.15,2013-03-05 13:30:00,
2013-03-05 08:35:00,27.9,21.0,30.00,NE,43,8.0,12.0,75,0.00,,,0.00,Wunderground v.1.15,2013-03-05 13:35:00,
2013-03-05 08:40:00,27.7,20.8,29.99,ENE,75,8.0,8.0,75,0.00,,,0.00,Wunderground v.1.15,2013-03-05 13:40:00,
2013-03-05 08:45:00,27.7,20.8,29.99,East,86,9.0,16.0,75,0.00,,,0.00,Wunderground v.1.15,2013-03-05 13:45:00,
2013-03-05 08:55:00,27.5,21.2,29.99,ESE,118,8.0,16.0,77,0.00,,,0.00,Wunderground v.1.15,2013-03-05 13:55:00,
2013-03-05 09:00:00,27.6,21.3,29.99,ENE,68,8.0,8.0,77,0.00,,,0.00,Wunderground v.1.15,2013-03-05 14:00:00,
2013-03-05 09:10:00,27.5,21.5,29.99,ESE,118,9.0,10.0,78,0.00,,,0.00,Wunderground v.1.15,2013-03-05 14:10:00,
2013-03-05 09:15:00,27.5,21.2,29.99,East,95,10.0,10.0,77,0.00,,,0.00,Wunderground v.1.15,2013-03-05 14:15:00,
2013-03-05 09:20:00,27.5,21.8,29.98,East,84,10.0,10.0,79,0.00,,,0.00,Wunderground v.1.15,2013-03-05 14:20:00,
2013-03-05 09:30:00,27.5,21.8,29.98,East,79,8.0,8.0,79,0.00,,,0.00,Wunderground v.1.15,2013-03-05 14:30:00,
2013-03-05 09:35:00,27.5,21.5,29.98,ENE,76,8.0,8.0,78,0.00,,,0.00,Wunderground v.1.15,2013-03-05 14:35:00,
2013-03-05 09:40:00,27.5,21.8,29.98,ENE,77,8.0,8.0,79,0.00,,,0.00,Wunderground v.1.15,2013-03-05 14:40:00,
2013-03-05 09:45:00,27.7,22.0,29.98,ENE,72,8.0,8.0,79,0.00,,,0.00,Wunderground v.1.15,2013-03-05 14:45:00,
2013-03-05 09:50:00,27.5,21.8,29.98,ENE,63,7.0,7.0,79,0.00,,,0.00,Wunderground v.1.15,2013-03-05 14:50:00,
2013-03-05 10:00:00,27.5,21.8,29.98,ENE,72,8.0,8.0,79,0.00,,,0.00,Wunderground v.1.15,2013-03-05 15:00:00,
2013-03-05 10:10:00,27.5,21.8,29.98,ENE,59,8.0,10.0,79,0.00,,,0.00,Wunderground v.1.15,2013-03-05 15:10:00,
2013-03-05 10:15:00,27.7,22.3,29.97,East,94,8.0,13.0,80,0.00,,,0.00,Wunderground v.1.15,2013-03-05 15:15:00,
2013-03-05 10:20:00,27.7,22.0,29.97,ESE,113,8.0,8.0,79,0.00,,,0.00,Wunderground v.1.15,2013-03-05 15:20:00,
2013-03-05 10:25:00,27.9,22.5,29.97,ENE,68,8.0,9.0,80,0.00,,,0.00,Wunderground v.1.15,2013-03-05 15:25:00,
2013-03-05 10:35:00,27.5,22.1,29.97,SE,129,9.0,9.0,80,0.00,,,0.00,Wunderground v.1.15,2013-03-05 15:35:00,
2013-03-05 10:40:00,27.5,22.4,29.97,ENE,77,8.0,8.0,81,0.00,,,0.00,Wunderground v.1.15,2013-03-05 15:40:00,
2013-03-05 10:45:00,27.4,22.0,29.97,ENE,74,7.0,8.0,80,0.00,,,0.00,Wunderground v.1.15,2013-03-05 15:45:00,
2013-03-05 10:50:00,27.4,22.3,29.96,ESE,103,7.0,7.0,81,0.00,,,0.00,Wunderground v.1.15,2013-03-05 15:50:00,
2013-03-05 10:55:00,27.6,22.8,29.96,SE,145,8.0,8.0,82,0.00,,,0.00,Wunderground v.1.15,2013-03-05 15:55:00,
2013-03-05 11:00:00,27.9,22.8,29.96,NE,54,8.0,8.0,81,0.00,,,0.00,Wunderground v.1.15,2013-03-05 16:00:00,
2013-03-05 11:10:00,27.9,22.5,29.96,East,81,8.0,11.0,80,0.00,,,0.00,Wunderground v.1.15,2013-03-05 16:10:00,
2013-03-05 11:15:00,28.0,22.6,29.96,ESE,121,9.0,11.0,80,0.00,,,0.00,Wunderground v.1.15,2013-03-05 16:15:00,
2013-03-05 11:20:00,28.0,22.6,29.96,NE,49,10.0,10.0,80,0.00,,,0.00,Wunderground v.1.15,2013-03-05 16:20:00,
2013-03-05 11:25:00,27.9,22.5,29.95,ESE,110,8.0,10.0,80,0.00,,,0.00,Wunderground v.1.15,2013-03-05 16:25:00,
2013-03-05 11:30:00,27.9,22.8,29.95,ENE,66,8.0,8.0,81,0.00,,,0.00,Wunderground v.1.15,2013-03-05 16:30:00,
2013-03-05 11:40:00,28.0,22.6,29.95,ENE,72,7.0,7.0,80,0.00,,,0.00,Wunderground v.1.15,2013-03-05 16:40:00,
2013-03-05 11:45:00,28.1,23.0,29.95,ENE,75,8.0,8.0,81,0.00,,,0.00,Wunderground v.1.15,2013-03-05 16:45:00,
2013-03-05 11:50:00,28.0,22.6,29.95,ENE,73,8.0,8.0,80,0.00,,,0.00,Wunderground v.1.15,2013-03-05 16:50:00,
2013-03-05 11:55:00,28.0,22.9,29.94,East,98,7.0,8.0,81,0.00,,,0.00,Wunderground v.1.15,2013-03-05 16:55:00,
2013-03-05 12:00:00,28.3,23.2,29.94,ENE,62,7.0,7.0,81,0.00,,,0.00,Wunderground v.1.15,2013-03-05 17:00:00,
2013-03-05 12:10:00,28.4,23.0,29.93,ESE,108,8.0,11.0,80,0.00,,,0.00,Wunderground v.1.15,2013-03-05 17:10:00,
2013-03-05 12:15:00,28.8,23.1,29.93,East,91,9.0,11.0,79,0.00,,,0.00,Wunderground v.1.15,2013-03-05 17:15:00,
2013-03-05 12:20:00,28.8,23.1,29.92,ESE,113,9.0,9.0,79,0.00,,,0.00,Wunderground v.1.15,2013-03-05 17:20:00,
2013-03-05 12:25:00,28.9,23.2,29.92,ENE,72,9.0,11.0,79,0.00,,,0.00,Wunderground v.1.15,2013-03-05 17:25:00,
2013-03-05 12:30:00,28.9,23.2,29.92,ENE,66,10.0,10.0,79,0.00,,,0.00,Wunderground v.1.15,2013-03-05 17:30:00,
2013-03-05 12:35:00,29.2,23.2,29.91,ESE,106,11.0,11.0,78,0.00,,,0.00,Wunderground v.1.15,2013-03-05 17:35:00,
2013-03-05 12:45:00,29.5,23.5,29.90,NE,51,9.0,10.0,78,0.00,,,0.00,Wunderground v.1.15,2013-03-05 17:45:00,
2013-03-05 12:50:00,29.5,23.2,29.90,ESE,121,9.0,9.0,77,0.00,,,0.00,Wunderground v.1.15,2013-03-05 17:50:00,
2013-03-05 12:55:00,29.5,23.2,29.90,ENE,63,10.0,10.0,77,0.00,,,0.00,Wunderground v.1.15,2013-03-05 17:55:00,
2013-03-05 13:00:00,29.4,23.1,29.90,ENE,68,10.0,13.0,77,0.00,,,0.00,Wunderground v.1.15,2013-03-05 18:00:00,
2013-03-05 13:10:00,29.6,23.0,29.89,ENE,73,10.0,10.0,76,0.00,,,0.00,Wunderground v.1.15,2013-03-05 18:10:00,
2013-03-05 13:15:00,29.7,23.1,29.89,ESE,103,10.0,13.0,76,0.00,,,0.00,Wunderground v.1.15,2013-03-05 18:15:00,
2013-03-05 13:20:00,29.7,22.7,29.88,ENE,75,11.0,11.0,75,0.00,,,0.00,Wunderground v.1.15,2013-03-05 18:20:00,
2013-03-05 13:25:00,29.7,22.4,29.88,East,87,10.0,15.0,74,0.00,,,0.00,Wunderground v.1.15,2013-03-05 18:25:00,
2013-03-05 13:30:00,29.9,22.9,29.88,NE,41,10.0,10.0,75,0.00,,,0.00,Wunderground v.1.15,2013-03-05 18:30:00,
2013-03-05 13:35:00,30.0,22.4,29.87,ENE,72,10.0,10.0,73,0.00,,,0.00,Wunderground v.1.15,2013-03-05 18:35:00,
2013-03-05 13:45:00,29.9,22.3,29.87,ENE,70,10.0,10.0,73,0.00,,,0.00,Wunderground v.1.15,2013-03-05 18:45:00,
2013-03-05 13:50:00,29.7,22.7,29.86,East,89,11.0,11.0,75,0.00,,,0.00,Wunderground v.1.15,2013-03-05 18:50:00,
2013-03-05 13:55:00,29.5,22.9,29.86,East,100,11.0,11.0,76,0.00,,,0.00,Wunderground v.1.15,2013-03-05 18:55:00,
2013-03-05 14:00:00,29.2,23.2,29.86,East,83,11.0,11.0,78,0.00,,,0.00,Wunderground v.1.15,2013-03-05 19:00:00,
2013-03-05 14:10:00,29.2,23.8,29.85,ENE,68,8.0,9.0,80,0.00,,,0.00,Wunderground v.1.15,2013-03-05 19:10:00,
2013-03-05 14:20:00,29.0,24.2,29.85,North,4,8.0,8.0,82,0.00,,,0.00,Wunderground v.1.15,2013-03-05 19:20:00,
2013-03-05 14:25:00,28.9,24.4,29.85,ENE,78,8.0,9.0,83,0.00,,,0.00,Wunderground v.1.15,2013-03-05 19:25:00,
2013-03-05 14:30:00,28.6,24.1,29.85,East,83,9.0,16.0,83,0.00,,,0.00,Wunderground v.1.15,2013-03-05 19:30:00,
2013-03-05 14:35:00,28.5,24.3,29.85,ENE,60,9.0,16.0,84,0.00,,,0.00,Wunderground v.1.15,2013-03-05 19:35:00,
2013-03-05 14:40:00,28.4,23.9,29.84,East,81,9.0,9.0,83,0.00,,,0.00,Wunderground v.1.15,2013-03-05 19:40:00,
2013-03-05 14:50:00,28.6,24.4,29.84,East,85,7.0,13.0,84,0.00,,,0.00,Wunderground v.1.15,2013-03-05 19:50:00,
2013-03-05 14:55:00,28.6,24.1,29.84,ESE,103,8.0,13.0,83,0.00,,,0.00,Wunderground v.1.15,2013-03-05 19:55:00,
2013-03-05 15:00:00,28.5,24.0,29.84,ENE,68,10.0,12.0,83,0.00,,,0.00,Wunderground v.1.15,2013-03-05 20:00:00,
2013-03-05 15:10:00,28.2,24.3,29.83,ENE,69,9.0,9.0,85,0.00,,,0.00,Wunderground v.1.15,2013-03-05 20:10:00,
2013-03-05 15:15:00,28.1,24.2,29.83,ENE,68,8.0,12.0,85,0.00,,,0.00,Wunderground v.1.15,2013-03-05 20:15:00,
2013-03-05 15:25:00,28.1,24.2,29.82,East,79,9.0,9.0,85,0.00,,,0.00,Wunderground v.1.15,2013-03-05 20:25:00,
2013-03-05 15:30:00,28.2,24.0,29.82,East,95,9.0,9.0,84,0.00,,,0.00,Wunderground v.1.15,2013-03-05 20:30:00,
2013-03-05 15:35:00,28.3,24.1,29.82,ENE,75,9.0,9.0,84,0.00,,,0.00,Wunderground v.1.15,2013-03-05 20:35:00,
2013-03-05 15:40:00,28.6,24.4,29.81,ENE,67,7.0,8.0,84,0.00,,,0.00,Wunderground v.1.15,2013-03-05 20:40:00,
2013-03-05 15:45:00,28.6,23.5,29.81,ENE,75,7.0,8.0,81,0.00,,,0.00,Wunderground v.1.15,2013-03-05 20:45:00,
2013-03-05 15:55:00,28.8,23.1,29.81,East,87,9.0,10.0,79,0.00,,,0.00,Wunderground v.1.15,2013-03-05 20:55:00,
2013-03-05 16:00:00,28.8,22.5,29.81,NE,56,11.0,11.0,77,0.00,,,0.00,Wunderground v.1.15,2013-03-05 21:00:00,
2013-03-05 16:10:00,29.0,22.1,29.81,NE,56,9.0,9.0,75,0.00,,,0.00,Wunderground v.1.15,2013-03-05 21:10:00,
2013-03-05 16:15:00,28.9,22.6,29.81,East,93,10.0,14.0,77,0.00,,,0.00,Wunderground v.1.15,2013-03-05 21:15:00,
2013-03-05 16:20:00,28.7,22.7,29.81,East,81,10.0,13.0,78,0.00,,,0.00,Wunderground v.1.15,2013-03-05 21:20:00,
2013-03-05 16:30:00,28.4,22.7,29.81,ENE,76,9.0,9.0,79,0.00,,,0.00,Wunderground v.1.15,2013-03-05 21:30:00,
2013-03-05 16:35:00,28.3,22.9,29.81,East,100,7.0,9.0,80,0.00,,,0.00,Wunderground v.1.15,2013-03-05 21:35:00,
2013-03-05 16:40:00,28.4,23.0,29.81,ENE,75,7.0,7.0,80,0.00,,,0.00,Wunderground v.1.15,2013-03-05 21:40:00,
2013-03-05 16:45:00,28.5,23.1,29.81,ESE,103,7.0,8.0,80,0.00,,,0.00,Wunderground v.1.15,2013-03-05 21:45:00,
2013-03-05 16:50:00,28.5,23.4,29.81,East,82,7.0,18.0,81,0.00,,,0.00,Wunderground v.1.15,2013-03-05 21:50:00,
2013-03-05 17:00:00,28.7,23.0,29.81,NNE,29,7.0,9.0,79,0.00,,,0.00,Wunderground v.1.15,2013-03-05 22:00:00,
2013-03-05 17:10:00,29.2,22.9,29.81,ENE,72,7.0,9.0,77,0.00,,,0.00,Wunderground v.1.15,2013-03-05 22:10:00,
2013-03-05 17:15:00,29.5,22.2,29.81,ENE,77,7.0,17.0,74,0.00,,,0.00,Wunderground v.1.15,2013-03-05 22:15:00,
2013-03-05 17:20:00,29.8,22.2,29.81,East,82,7.0,9.0,73,0.00,,,0.00,Wunderground v.1.15,2013-03-05 22:20:00,
2013-03-05 17:25:00,30.1,22.5,29.81,NE,56,7.0,9.0,73,0.00,,,0.00,Wunderground v.1.15,2013-03-05 22:25:00,
2013-03-05 17:35:00,30.0,23.0,29.82,ESE,118,7.0,13.0,75,0.00,,,0.00,Wunderground v.1.15,2013-03-05 22:35:00,
2013-03-05 17:40:00,29.9,22.6,29.82,ENE,75,7.0,7.0,74,0.00,,,0.00,Wunderground v.1.15,2013-03-05 22:40:00,
2013-03-05 17:45:00,30.0,22.4,29.82,ENE,77,7.0,14.0,73,0.00,,,0.00,Wunderground v.1.15,2013-03-05 22:45:00,
2013-03-05 17:50:00,30.1,22.2,29.82,ENE,74,7.0,7.0,72,0.00,,,0.00,Wunderground v.1.15,2013-03-05 22:50:00,
2013-03-05 17:55:00,30.4,22.8,29.82,East,96,7.0,11.0,73,0.00,,,0.00,Wunderground v.1.15,2013-03-05 22:55:00,
2013-03-05 18:00:00,29.5,23.5,29.82,East,94,10.0,16.0,78,0.00,,,0.00,Wunderground v.1.15,2013-03-05 23:00:00,
2013-03-05 18:10:00,29.0,24.2,29.83,East,91,10.0,10.0,82,0.00,,,0.00,Wunderground v.1.15,2013-03-05 23:10:00,
2013-03-05 18:15:00,28.6,24.7,29.83,NE,41,9.0,10.0,85,0.00,,,0.00,Wunderground v.1.15,2013-03-05 23:15:00,
2013-03-05 18:20:00,28.2,25.1,29.83,East,86,8.0,8.0,88,0.00,,,0.00,Wunderground v.1.15,2013-03-05 23:20:00,
2013-03-05 18:25:00,28.1,25.0,29.83,East,90,6.0,8.0,88,0.00,,,0.00,Wunderground v.1.15,2013-03-05 23:25:00,
2013-03-05 18:30:00,28.0,25.2,29.83,East,87,7.0,13.0,89,0.00,,,0.00,Wunderground v.1.15,2013-03-05 23:30:00,
2013-03-05 18:40:00,27.8,25.5,29.83,ENE,75,5.0,5.0,91,0.00,,,0.00,Wunderground v.1.15,2013-03-05 23:40:00,
2013-03-05 18:45:00,27.8,25.5,29.83,East,84,6.0,7.0,91,0.00,,,0.00,Wunderground v.1.15,2013-03-05 23:45:00,
2013-03-05 18:50:00,27.8,25.5,29.83,NE,48,7.0,7.0,91,0.00,,,0.00,Wunderground v.1.15,2013-03-05 23:50:00,
2013-03-05 18:55:00,27.7,25.7,29.83,NNE,27,7.0,7.0,92,0.00,,,0.00,Wunderground v.1.15,2013-03-05 23:55:00,
2013-03-05 19:00:00,27.7,25.9,29.83,ENE,66,6.0,6.0,93,0.00,,,0.00,Wunderground v.1.15,2013-03-06 00:00:00,
2013-03-05 19:10:00,27.7,25.9,29.83,East,79,5.0,5.0,93,0.00,,,0.00,Wunderground v.1.15,2013-03-06 00:10:00,
2013-03-05 19:15:00,27.7,25.9,29.84,NE,53,6.0,6.0,93,0.00,,,0.00,Wunderground v.1.15,2013-03-06 00:15:00,
2013-03-05 19:20:00,27.7,26.2,29.84,NE,56,6.0,6.0,94,0.00,,,0.00,Wunderground v.1.15,2013-03-06 00:20:00,
2013-03-05 19:25:00,27.6,26.1,29.84,ENE,61,5.0,6.0,94,0.00,,,0.00,Wunderground v.1.15,2013-03-06 00:25:00,
2013-03-05 19:30:00,27.6,26.1,29.84,ENE,65,4.0,5.0,94,0.00,,,0.00,Wunderground v.1.15,2013-03-06 00:30:00,
2013-03-05 19:35:00,27.6,26.1,29.84,NNE,33,4.0,5.0,94,0.00,,,0.00,Wunderground v.1.15,2013-03-06 00:35:00,
2013-03-05 19:45:00,27.6,26.4,29.84,NE,53,5.0,10.0,95,0.00,,,0.00,Wunderground v.1.15,2013-03-06 00:45:00,
2013-03-05 19:50:00,27.7,26.5,29.83,NE,56,5.0,6.0,95,0.00,,,0.00,Wunderground v.1.15,2013-03-06 00:50:00,
2013-03-05 19:55:00,27.7,26.5,29.83,NNE,23,6.0,8.0,95,0.00,,,0.00,Wunderground v.1.15,2013-03-06 00:55:00,
2013-03-05 20:00:00,27.7,26.5,29.83,ENE,59,5.0,7.0,95,0.00,,,0.00,Wunderground v.1.15,2013-03-06 01:00:00,
2013-03-05 20:10:00,27.8,26.6,29.83,NE,46,6.0,7.0,95,0.00,,,0.00,Wunderground v.1.15,2013-03-06 01:10:00,
2013-03-05 20:15:00,27.9,26.7,29.83,NE,39,6.0,7.0,95,0.00,,,0.00,Wunderground v.1.15,2013-03-06 01:15:00,
2013-03-05 20:20:00,27.9,26.7,29.83,NNE,32,5.0,5.0,95,0.00,,,0.00,Wunderground v.1.15,2013-03-06 01:20:00,
2013-03-05 20:25:00,28.0,26.8,29.83,ENE,62,6.0,8.0,95,0.00,,,0.00,Wunderground v.1.15,2013-03-06 01:25:00,
2013-03-05 20:30:00,28.0,26.8,29.83,NE,53,7.0,7.0,95,0.00,,,0.00,Wunderground v.1.15,2013-03-06 01:30:00,
2013-03-05 20:35:00,28.0,26.8,29.83,NE,53,9.0,10.0,95,0.00,,,0.00,Wunderground v.1.15,2013-03-06 01:35:00,
2013-03-05 20:45:00,27.7,26.5,29.83,NE,46,11.0,17.0,95,0.00,,,0.00,Wunderground v.1.15,2013-03-06 01:45:00,
2013-03-05 20:50:00,27.6,26.4,29.82,NNE,30,11.0,13.0,95,0.00,,,0.00,Wunderground v.1.15,2013-03-06 01:50:00,
2013-03-05 20:55:00,27.4,26.2,29.82,NNE,32,11.0,14.0,95,0.00,,,0.00,Wunderground v.1.15,2013-03-06 01:55:00,
2013-03-05 21:00:00,27.3,26.1,29.83,North,11,12.0,16.0,95,0.00,,,0.00,Wunderground v.1.15,2013-03-06 02:00:00,
2013-03-05 21:10:00,27.1,25.9,29.83,NE,47,11.0,11.0,95,0.00,,,0.00,Wunderground v.1.15,2013-03-06 02:10:00,
2013-03-05 21:20:00,26.9,25.7,29.83,NE,44,12.0,14.0,95,0.00,,,0.00,Wunderground v.1.15,2013-03-06 02:20:00,
2013-03-05 21:25:00,26.9,25.7,29.84,NNE,32,12.0,14.0,95,0.00,,,0.00,Wunderground v.1.15,2013-03-06 02:25:00,
2013-03-05 21:30:00,26.8,25.6,29.84,NNE,28,12.0,22.0,95,0.00,,,0.00,Wunderground v.1.15,2013-03-06 02:30:00,
2013-03-05 21:35:00,26.7,25.5,29.84,NNE,30,13.0,22.0,95,0.00,,,0.00,Wunderground v.1.15,2013-03-06 02:35:00,
2013-03-05 21:40:00,26.7,25.5,29.84,NE,41,13.0,14.0,95,0.00,,,0.00,Wunderground v.1.15,2013-03-06 02:40:00,
2013-03-05 21:50:00,26.5,25.3,29.84,NE,49,13.0,13.0,95,0.00,,,0.00,Wunderground v.1.15,2013-03-06 02:50:00,
2013-03-05 21:55:00,26.4,25.2,29.84,NE,41,14.0,14.0,95,0.00,,,0.00,Wunderground v.1.15,2013-03-06 02:55:00,
2013-03-05 22:00:00,26.3,25.1,29.84,NE,44,13.0,16.0,95,0.00,,,0.00,Wunderground v.1.15,2013-03-06 03:00:00,
2013-03-05 22:10:00,26.2,25.0,29.85,NE,44,15.0,15.0,95,0.00,,,0.00,Wunderground v.1.15,2013-03-06 03:10:00,
2013-03-05 22:15:00,26.2,25.0,29.85,NE,37,13.0,15.0,95,0.00,,,0.00,Wunderground v.1.15,2013-03-06 03:15:00,
2013-03-05 22:25:00,26.1,24.9,29.85,NNE,18,13.0,16.0,95,0.00,,,0.00,Wunderground v.1.15,2013-03-06 03:25:00,
2013-03-05 22:30:00,25.9,24.7,29.85,NE,46,14.0,17.0,95,0.00,,,0.00,Wunderground v.1.15,2013-03-06 03:30:00,
2013-03-05 22:35:00,25.8,24.6,29.85,NNE,33,15.0,26.0,95,0.00,,,0.00,Wunderground v.1.15,2013-03-06 03:35:00,
2013-03-05 22:40:00,25.7,24.5,29.85,NE,38,15.0,16.0,95,0.00,,,0.00,Wunderground v.1.15,2013-03-06 03:40:00,
2013-03-05 22:45:00,25.7,24.5,29.85,NE,39,13.0,16.0,95,0.00,,,0.00,Wunderground v.1.15,2013-03-06 03:45:00,
2013-03-05 22:50:00,25.7,24.5,29.86,NNE,30,12.0,13.0,95,0.00,,,0.00,Wunderground v.1.15,2013-03-06 03:50:00,
2013-03-05 22:55:00,25.5,24.3,29.86,NE,39,12.0,19.0,95,0.00,,,0.00,Wunderground v.1.15,2013-03-06 03:55:00,
2013-03-05 23:00:00,25.3,24.1,29.86,NE,37,14.0,14.0,95,0.00,,,0.00,Wunderground v.1.15,2013-03-06 04:00:00,
2013-03-05 23:10:00,25.1,23.9,29.86,NNE,32,12.0,14.0,95,0.00,,,0.00,Wunderground v.1.15,2013-03-06 04:10:00,
2013-03-05 23:15:00,25.0,23.8,29.87,ENE,63,12.0,14.0,95,0.00,,,0.00,Wunderground v.1.15,2013-03-06 04:15:00,
2013-03-05 23:20:00,25.0,23.8,29.87,NNE,18,12.0,20.0,95,0.00,,,0.00,Wunderground v.1.15,2013-03-06 04:20:00,
2013-03-05 23:30:00,24.9,23.7,29.87,NNE,30,13.0,13.0,95,0.00,,,0.00,Wunderground v.1.15,2013-03-06 04:30:00,
2013-03-05 23:35:00,24.9,23.4,29.87,NNE,26,13.0,17.0,94,0.00,,,0.00,Wunderground v.1.15,2013-03-06 04:35:00,
2013-03-05 23:40:00,24.9,23.4,29.87,NNE,25,13.0,13.0,94,0.00,,,0.00,Wunderground v.1.15,2013-03-06 04:40:00,
2013-03-05 23:45:00,25.0,23.5,29.88,NNE,25,13.0,15.0,94,0.00,,,0.00,Wunderground v.1.15,2013-03-06 04:45:00,
2013-03-05 23:50:00,25.1,23.4,29.88,NE,44,12.0,12.0,93,0.00,,,0.00,Wunderground v.1.15,2013-03-06 04:50:00,
2013-03-05 23:55:00,25.2,23.2,29.88,NNE,30,13.0,13.0,92,0.00,,,0.00,Wunderground v.1.15,2013-03-06 04:55:00,